Location: Carlingford
(46.7848°N, 67.7474°W)
Time: 06:01:07
(UTC+00:00)

Envisat - Pass Details

Date: 10 December 2022
Orbit: 763 x 765 km, 98.2° (Epoch: 27 January)

Event Time Altitude Azimuth Distance (km) Brightness Sun altitude
Rises 21:16:55 0° 216° (SW) 3,221 7.5 -5.9°
Reaches altitude 10° 21:20:22 10° 241° (WSW) 2,301 7.3 -6.4°
Maximum altitude 21:23:00 14° 272° (W) 2,035 6.3 -6.8°
Drops below altitude 10° 21:25:37 10° 304° (NW) 2,311 5.9 -7.2°
Sets 21:29:08 0° 329° (NNW) 3,243 6.3 -7.8°
